Location: *
(57.8420°S, 159.8600°W)
Time: 13:06:32
(UTC+00:00)

Cosmos 2221 - Pass Details

Date: 18 May 2021
Orbit: 592 x 616 km, 82.5° (Epoch: 22 June)

Event Time Altitude Azimuth Distance (km) Brightness Sun altitude
Rises 03:55:13 0° 194° (SSW) 2,883 5.9 -11.3°
Reaches altitude 10° 03:57:27 10° 194° (SSW) 1,973 5.1 -11.5°
Maximum altitude 04:01:49 82° 280° (W) 620 2.6 -12.1°
Drops below altitude 10° 04:06:09 10° 8° (N) 1,952 5.2 -12.6°
Sets 04:08:20 0° 8° (N) 2,849 6.1 -12.9°
